| time (UTC) | temp C | wind direction | speed KPH | gust KPH | rain 1hr cm | rain 24hr cm | rain mn cm | humidity % | barometer mb |
| 20260508110003 | 18 | 59 | 8.0 | 16.1 | 0.00 | 0.99 | 0.13 | 74 | 1014.0 |
| 20260508105403 | 18 | 46 | 8.0 | 20.9 | 0.00 | 0.99 | 0.13 | 75 | 1014.1 |
| 20260508104503 | 18 | 63 | 8.0 | 19.3 | 0.00 | 0.99 | 0.13 | 74 | 1013.9 |
| 20260508103603 | 17 | 70 | 9.7 | 19.3 | 0.00 | 0.99 | 0.13 | 74 | 1014.0 |
| 20260508102703 | 17 | 80 | 8.0 | 20.9 | 0.00 | 0.99 | 0.13 | 74 | 1013.8 |
| 20260508101803 | 17 | 46 | 8.0 | 17.7 | 0.00 | 0.99 | 0.13 | 73 | 1014.0 |
| 20260508100903 | 18 | 51 | 8.0 | 17.7 | 0.00 | 0.99 | 0.13 | 75 | 1014.1 |
| 20260508100003 | 17 | 37 | 8.0 | 17.7 | 0.00 | 0.99 | 0.13 | 78 | 1013.8 |
| 20260508095403 | 17 | 45 | 8.0 | 19.3 | 0.00 | 0.99 | 0.13 | 77 | 1013.8 |
| 20260508094504 | 17 | 38 | 8.0 | 16.1 | 0.00 | 0.99 | 0.13 | 78 | 1014.3 |
| 20260508093603 | 16 | 64 | 8.0 | 14.5 | 0.00 | 0.99 | 0.13 | 80 | 1014.3 |
| 20260508092703 | 16 | 74 | 6.4 | 12.9 | 0.00 | 0.99 | 0.13 | 82 | 1014.2 |
| 20260508091803 | 16 | 74 | 6.4 | 14.5 | 0.00 | 0.99 | 0.13 | 82 | 1014.3 |
| 20260508090904 | 16 | 69 | 8.0 | 20.9 | 0.00 | 0.99 | 0.13 | 81 | 1014.1 |
| 20260508090003 | 16 | 75 | 8.0 | 17.7 | 0.00 | 0.99 | 0.13 | 81 | 1014.0 |
| 20260508085403 | 16 | 70 | 9.7 | 17.7 | 0.00 | 0.99 | 0.13 | 81 | 1014.2 |
| 20260508084504 | 16 | 70 | 8.0 | 19.3 | 0.00 | 0.99 | 0.13 | 81 | 1014.2 |
| 20260508083604 | 16 | 49 | 8.0 | 12.9 | 0.00 | 0.99 | 0.13 | 82 | 1014.0 |
| 20260508082703 | 15 | 62 | 6.4 | 12.9 | 0.00 | 0.99 | 0.13 | 84 | 1013.9 |
| 20260508081803 | 15 | 46 | 6.4 | 11.3 | 0.00 | 0.99 | 0.13 | 86 | 1013.9 |
| 20260508080904 | 15 | 44 | 6.4 | 11.3 | 0.00 | 0.99 | 0.13 | 88 | 1014.0 |
| 20260508080004 | 14 | 52 | 6.4 | 14.5 | 0.00 | 0.99 | 0.13 | 89 | 1013.9 |
| 20260508075404 | 14 | 52 | 6.4 | 14.5 | 0.00 | 0.99 | 0.13 | 90 | 1013.8 |
| 20260508074504 | 14 | 46 | 6.4 | 14.5 | 0.00 | 0.99 | 0.13 | 90 | 1013.6 |
| 20260508073603 | 14 | 70 | 6.4 | 12.9 | 0.00 | 0.99 | 0.13 | 90 | 1013.8 |
| 20260508072703 | 14 | 68 | 6.4 | 12.9 | 0.00 | 0.99 | 0.13 | 90 | 1013.9 |
| 20260508071804 | 14 | 59 | 6.4 | 12.9 | 0.00 | 0.99 | 0.13 | 90 | 1013.5 |
| 20260508070903 | 14 | 65 | 8.0 | 14.5 | 0.00 | 0.99 | 0.13 | 90 | 1013.6 |
| 20260508070004 | 14 | 73 | 8.0 | 14.5 | 0.00 | 0.99 | 0.13 | 90 | 1013.4 |
| 20260508065403 | 14 | 60 | 6.4 | 11.3 | 0.00 | 0.99 | 0.13 | 90 | 1013.4 |
| 20260508064503 | 14 | 53 | 4.8 | 9.7 | 0.00 | 0.99 | 0.13 | 90 | 1013.6 |
| 20260508063603 | 13 | 46 | 6.4 | 9.7 | 0.00 | 0.99 | 0.13 | 90 | 1013.3 |
| 20260508062703 | 13 | 51 | 4.8 | 9.7 | 0.00 | 0.99 | 0.13 | 90 | 1013.6 |
| 20260508061803 | 13 | 53 | 4.8 | 8.0 | 0.00 | 0.99 | 0.13 | 90 | 1013.3 |
| 20260508060904 | 13 | 46 | 4.8 | 9.7 | 0.00 | 0.99 | 0.13 | 90 | 1013.3 |
| 20260508060003 | 13 | 46 | 6.4 | 9.7 | 0.00 | 0.99 | 0.13 | 90 | 1013.0 |
| 20260508055403 | 13 | 53 | 4.8 | 9.7 | 0.00 | 0.99 | 0.13 | 90 | 1013.0 |
| 20260508054504 | 13 | 37 | 4.8 | 9.7 | 0.00 | 0.99 | 0.13 | 90 | 1013.0 |
| 20260508053603 | 13 | 46 | 4.8 | 9.7 | 0.00 | 0.99 | 0.13 | 90 | 1013.0 |
| 20260508052703 | 13 | 53 | 3.2 | 6.4 | 0.00 | 0.99 | 0.13 | 91 | 1012.6 |
| 20260508051803 | 12 | 61 | 3.2 | 6.4 | 0.00 | 0.99 | 0.13 | 91 | 1012.4 |
| 20260508050903 | 12 | 101 | 3.2 | 6.4 | 0.00 | 0.99 | 0.13 | 91 | 1012.2 |
| 20260508050004 | 12 | 112 | 3.2 | 8.0 | 0.00 | 0.99 | 0.13 | 91 | 1012.0 |
| 20260508045403 | 13 | 83 | 3.2 | 8.0 | 0.00 | 0.99 | 0.13 | 91 | 1011.6 |
| 20260508044504 | 13 | 87 | 3.2 | 6.4 | 0.00 | 0.99 | 0.13 | 91 | 1011.6 |
| 20260508043603 | 13 | 131 | 4.8 | 8.0 | 0.00 | 0.99 | 0.13 | 91 | 1011.5 |
| 20260508042703 | 13 | 100 | 3.2 | 6.4 | 0.00 | 0.99 | 0.13 | 91 | 1011.6 |
| 20260508041803 | 13 | 76 | 3.2 | 8.0 | 0.00 | 0.99 | 0.13 | 91 | 1011.5 |
| 20260508040903 | 13 | 39 | 3.2 | 6.4 | 0.00 | 0.99 | 0.13 | 91 | 1011.5 |
| 20260508040003 | 13 | 42 | 4.8 | 8.0 | 0.00 | 0.99 | 0.13 | 92 | 1011.5 |
| 20260508035403 | 13 | 74 | 4.8 | 8.0 | 0.00 | 0.99 | 0.13 | 92 | 1011.5 |
| 20260508034504 | 13 | 113 | 3.2 | 9.7 | 0.00 | 0.99 | 0.13 | 92 | 1011.7 |
| 20260508033603 | 13 | 51 | 3.2 | 8.0 | 0.00 | 0.99 | 0.13 | 91 | 1011.6 |
| 20260508032703 | 13 | 69 | 4.8 | 8.0 | 0.00 | 0.99 | 0.13 | 91 | 1012.0 |
| 20260508031803 | 13 | 54 | 4.8 | 8.0 | 0.00 | 0.99 | 0.13 | 92 | 1012.0 |
| 20260508030903 | 13 | 46 | 4.8 | 8.0 | 0.00 | 0.99 | 0.13 | 92 | 1012.0 |
| 20260508030003 | 13 | 54 | 3.2 | 9.7 | 0.00 | 0.99 | 0.13 | 93 | 1012.0 |
| 20260508025403 | 13 | 54 | 3.2 | 9.7 | 0.00 | 0.99 | 0.13 | 92 | 1012.0 |
| 20260508024504 | 13 | 67 | 3.2 | 8.0 | 0.00 | 0.99 | 0.13 | 92 | 1011.9 |
| 20260508023603 | 13 | 117 | 3.2 | 6.4 | 0.00 | 0.99 | 0.13 | 92 | 1011.9 |
| 20260508022703 | 13 | 85 | 1.6 | 6.4 | 0.00 | 0.99 | 0.13 | 92 | 1012.0 |
| 20260508021803 | 13 | 44 | 3.2 | 6.4 | 0.00 | 0.99 | 0.13 | 92 | 1011.9 |
| 20260508020903 | 13 | 61 | 3.2 | 4.8 | 0.00 | 0.99 | 0.13 | 92 | 1011.9 |
| 20260508020004 | 13 | 88 | 3.2 | 6.4 | 0.00 | 0.99 | 0.13 | 92 | 1011.8 |
| 20260508015403 | 13 | 71 | 4.8 | 8.0 | 0.00 | 0.99 | 0.13 | 92 | 1011.9 |
| 20260508014504 | 13 | 61 | 4.8 | 9.7 | 0.00 | 0.99 | 0.13 | 92 | 1011.9 |
| 20260508013603 | 14 | 52 | 6.4 | 14.5 | 0.00 | 0.99 | 0.13 | 92 | 1011.9 |
| 20260508012703 | 14 | 47 | 6.4 | 12.9 | 0.00 | 0.99 | 0.13 | 92 | 1012.1 |
| 20260508011803 | 14 | 48 | 6.4 | 16.1 | 0.00 | 0.99 | 0.13 | 92 | 1012.1 |
| 20260508010903 | 14 | 58 | 6.4 | 16.1 | 0.00 | 0.99 | 0.13 | 93 | 1012.1 |
| 20260508010003 | 14 | 75 | 6.4 | 14.5 | 0.00 | 0.99 | 0.13 | 93 | 1012.3 |
| 20260508005403 | 14 | 80 | 6.4 | 11.3 | 0.00 | 0.99 | 0.13 | 93 | 1012.3 |
| 20260508004503 | 14 | 60 | 3.2 | 8.0 | 0.00 | 0.99 | 0.13 | 93 | 1012.4 |
| 20260508003603 | 14 | 65 | 3.2 | 6.4 | 0.00 | 0.99 | 0.13 | 92 | 1012.5 |
| 20260508002703 | 14 | 66 | 3.2 | 9.7 | 0.00 | 0.99 | 0.13 | 92 | 1012.7 |
| 20260508001803 | 13 | 59 | 4.8 | 9.7 | 0.00 | 0.99 | 0.13 | 92 | 1012.8 |
| 20260508000903 | 13 | 84 | 6.4 | 14.5 | 0.00 | 0.99 | 0.13 | 92 | 1012.6 |
| 20260508000004 | 13 | 86 | 6.4 | 9.7 | 0.03 | 0.99 | 0.13 | 92 | 1012.7 |
| 20260507235403 | 13 | 87 | 6.4 | 11.3 | 0.05 | 0.99 | 0.13 | 91 | 1012.9 |
| 20260507234503 | 13 | 68 | 6.4 | 12.9 | 0.08 | 0.99 | 0.13 | 90 | 1012.9 |
| 20260507233603 | 13 | 57 | 6.4 | 12.9 | 0.10 | 0.99 | 0.13 | 90 | 1013.0 |
| 20260507232703 | 13 | 42 | 8.0 | 14.5 | 0.13 | 0.99 | 0.13 | 90 | 1013.2 |
| 20260507231803 | 13 | 47 | 8.0 | 19.3 | 0.13 | 0.99 | 0.13 | 89 | 1013.3 |
| 20260507230903 | 13 | 35 | 8.0 | 17.7 | 0.13 | 0.99 | 0.13 | 89 | 1013.5 |
| 20260507230003 | 13 | 48 | 4.8 | 12.9 | 0.10 | 0.99 | 0.10 | 87 | 1013.5 |
| 20260507225403 | 13 | 46 | 6.4 | 16.1 | 0.10 | 0.97 | 0.10 | 86 | 1013.5 |
| 20260507224504 | 14 | 56 | 8.0 | 14.5 | 0.05 | 0.91 | 0.05 | 84 | 1013.8 |
| 20260507223603 | 14 | 67 | 8.0 | 14.5 | 0.03 | 0.89 | 0.03 | 83 | 1013.5 |
| 20260507222703 | 14 | 66 | 8.0 | 17.7 | 0.00 | 0.86 | 0.00 | 83 | 1013.6 |
| 20260507221803 | 14 | 61 | 8.0 | 17.7 | 0.00 | 0.86 | 0.00 | 84 | 1013.3 |
| 20260507220903 | 13 | 68 | 6.4 | 19.3 | 0.00 | 0.86 | 0.00 | 86 | 1013.4 |
| 20260507220004 | 13 | 62 | 4.8 | 11.3 | 0.00 | 0.86 | 0.00 | 89 | 1013.3 |
| 20260507215403 | 13 | 46 | 6.4 | 17.7 | 0.00 | 0.86 | 0.86 | 90 | 1013.2 |
| 20260507214503 | 13 | 47 | 6.4 | 17.7 | 0.00 | 0.86 | 0.86 | 90 | 1013.2 |
| 20260507213603 | 13 | 51 | 4.8 | 8.0 | 0.00 | 0.86 | 0.86 | 90 | 1013.2 |
| 20260507212703 | 13 | 76 | 3.2 | 6.4 | 0.00 | 0.86 | 0.86 | 90 | 1013.2 |
| 20260507211803 | 13 | 105 | 3.2 | 6.4 | 0.00 | 0.86 | 0.86 | 90 | 1013.5 |
| 20260507210903 | 13 | 134 | 4.8 | 8.0 | 0.00 | 0.86 | 0.86 | 89 | 1013.4 |
| 20260507210003 | 13 | 79 | 3.2 | 6.4 | 0.03 | 0.86 | 0.86 | 89 | 1013.4 |
| 20260507205403 | 13 | 48 | 3.2 | 9.7 | 0.03 | 0.86 | 0.86 | 89 | 1013.4 |
| 20260507204504 | 13 | 82 | 3.2 | 8.0 | 0.03 | 0.86 | 0.86 | 89 | 1013.3 |
| 20260507203603 | 13 | 71 | 3.2 | 6.4 | 0.03 | 0.86 | 0.86 | 89 | 1013.3 |
| 20260507202703 | 13 | 85 | 4.8 | 9.7 | 0.03 | 0.86 | 0.86 | 89 | 1013.1 |
| 20260507201803 | 13 | 33 | 6.4 | 14.5 | 0.03 | 0.86 | 0.86 | 90 | 1013.2 |
| 20260507200904 | 13 | 46 | 6.4 | 14.5 | 0.03 | 0.86 | 0.86 | 91 | 1013.1 |
| 20260507200004 | 13 | 47 | 6.4 | 12.9 | 0.00 | 0.84 | 0.84 | 93 | 1012.9 |
| 20260507195403 | 13 | 42 | 6.4 | 12.9 | 0.03 | 0.84 | 0.84 | 93 | 1012.9 |
| 20260507194503 | 13 | 61 | 6.4 | 12.9 | 0.08 | 0.84 | 0.84 | 93 | 1012.8 |
| 20260507193603 | 14 | 71 | 6.4 | 16.1 | 0.13 | 0.84 | 0.84 | 93 | 1012.7 |
| 20260507192703 | 14 | 89 | 6.4 | 11.3 | 0.18 | 0.84 | 0.84 | 93 | 1012.6 |
| 20260507191808 | 14 | 110 | 6.4 | 14.5 | 0.18 | 0.84 | 0.84 | 93 | 1012.6 |
| 20260507190904 | 14 | 62 | 6.4 | 12.9 | 0.18 | 0.84 | 0.84 | 93 | 1012.3 |
| 20260507190005 | 14 | 68 | 6.4 | 12.9 | 0.20 | 0.84 | 0.84 | 93 | 1012.3 |
| 20260507185403 | 14 | 71 | 6.4 | 12.9 | 0.18 | 0.81 | 0.81 | 93 | 1012.3 |
| 20260507184504 | 14 | 57 | 3.2 | 9.7 | 0.18 | 0.79 | 0.79 | 93 | 1012.1 |
| 20260507183603 | 14 | 43 | 4.8 | 9.7 | 0.15 | 0.74 | 0.74 | 92 | 1012.2 |
| 20260507182703 | 14 | 70 | 4.8 | 8.0 | 0.18 | 0.69 | 0.69 | 92 | 1012.0 |
| 20260507181803 | 14 | 79 | 4.8 | 11.3 | 0.18 | 0.66 | 0.66 | 92 | 1012.0 |
| 20260507180903 | 14 | 96 | 4.8 | 9.7 | 0.23 | 0.66 | 0.66 | 92 | 1011.9 |
| 20260507180004 | 14 | 107 | 1.6 | 4.8 | 0.28 | 0.64 | 0.64 | 92 | 1011.6 |
| 20260507175404 | 14 | 103 | 3.2 | 6.4 | 0.30 | 0.64 | 0.64 | 92 | 1011.5 |
| 20260507174503 | 14 | 79 | 4.8 | 8.0 | 0.33 | 0.61 | 0.61 | 91 | 1011.5 |
| 20260507173603 | 14 | 65 | 4.8 | 8.0 | 0.30 | 0.56 | 0.56 | 91 | 1011.4 |
| 20260507172703 | 14 | 43 | 6.4 | 14.5 | 0.28 | 0.51 | 0.51 | 91 | 1011.6 |
| 20260507171803 | 14 | 45 | 8.0 | 16.1 | 0.25 | 0.48 | 0.48 | 90 | 1011.7 |
| 20260507170903 | 14 | 50 | 6.4 | 12.9 | 0.20 | 0.41 | 0.43 | 90 | 1011.8 |
| 20260507170003 | 14 | 54 | 6.4 | 12.9 | 0.18 | 0.38 | 0.38 | 89 | 1012.0 |
| 20260507165403 | 14 | 51 | 6.4 | 14.5 | 0.15 | 0.33 | 0.33 | 89 | 1011.9 |
| 20260507164503 | 15 | 57 | 6.4 | 14.5 | 0.28 | 0.28 | 0.28 | 89 | 1011.7 |
| 20260507163603 | 15 | 63 | 8.0 | 17.7 | 0.28 | 0.28 | 0.28 | 89 | 1011.9 |
| 20260507162703 | 15 | 46 | 8.0 | 16.1 | 0.23 | 0.23 | 0.23 | 90 | 1011.9 |
| 20260507161803 | 15 | 44 | 8.0 | 14.5 | 0.23 | 0.23 | 0.23 | 89 | 1011.6 |
| 20260507160904 | 15 | 49 | 8.0 | 14.5 | 0.20 | 0.20 | 0.20 | 88 | 1011.9 |
| 20260507160004 | 15 | 80 | 8.0 | 16.1 | 0.20 | 0.20 | 0.20 | 88 | 1011.8 |
| 20260507155403 | 16 | 96 | 9.7 | 20.9 | 0.18 | 0.18 | 0.18 | 86 | 1011.9 |
| 20260507154503 | 16 | 84 | 11.3 | 24.1 | 0.00 | 0.00 | 0.00 | 83 | 1011.6 |
| 20260507153604 | 17 | 96 | 9.7 | 25.7 | 0.00 | 0.00 | 0.00 | 77 | 1011.4 |
| 20260507152703 | 17 | 68 | 8.0 | 17.7 | 0.00 | 0.00 | 0.00 | 67 | 1011.5 |
| 20260507151803 | 17 | 70 | 9.7 | 20.9 | 0.00 | 0.00 | 0.00 | 67 | 1011.5 |
| 20260507150904 | 17 | 68 | 9.7 | 19.3 | 0.00 | 0.00 | 0.00 | 70 | 1011.6 |
| 20260507150004 | 17 | 53 | 9.7 | 22.5 | 0.00 | 0.03 | 0.00 | 67 | 1011.4 |
| 20260507145403 | 18 | 58 | 9.7 | 22.5 | 0.00 | 0.08 | 0.00 | 69 | 1011.6 |
| 20260507144503 | 18 | 47 | 12.9 | 29.0 | 0.00 | 0.10 | 0.00 | 68 | 1011.6 |
| 20260507143603 | 18 | 53 | 11.3 | 27.4 | 0.00 | 0.10 | 0.00 | 68 | 1011.6 |
| 20260507142703 | 18 | 57 | 11.3 | 20.9 | 0.00 | 0.13 | 0.00 | 69 | 1011.5 |
| 20260507141803 | 18 | 72 | 11.3 | 24.1 | 0.00 | 0.18 | 0.00 | 69 | 1011.6 |
| 20260507140903 | 18 | 65 | 11.3 | 22.5 | 0.00 | 0.33 | 0.00 | 69 | 1011.9 |
| 20260507140003 | 18 | 77 | 11.3 | 24.1 | 0.00 | 0.38 | 0.00 | 68 | 1012.0 |
| 20260507135403 | 18 | 75 | 12.9 | 25.7 | 0.00 | 0.38 | 0.00 | 67 | 1011.8 |
| 20260507134503 | 18 | 72 | 12.9 | 22.5 | 0.00 | 0.38 | 0.00 | 67 | 1012.0 |
| 20260507133604 | 18 | 54 | 11.3 | 20.9 | 0.00 | 0.41 | 0.00 | 67 | 1012.0 |
| 20260507132703 | 18 | 44 | 9.7 | 22.5 | 0.00 | 0.41 | 0.00 | 68 | 1012.1 |
| 20260507131803 | 18 | 42 | 11.3 | 22.5 | 0.00 | 0.43 | 0.00 | 66 | 1012.1 |
| 20260507130903 | 18 | 38 | 11.3 | 22.5 | 0.00 | 0.46 | 0.00 | 67 | 1012.0 |
| 20260507130004 | 18 | 35 | 9.7 | 24.1 | 0.00 | 0.46 | 0.00 | 67 | 1012.3 |
| 20260507125404 | 18 | 34 | 9.7 | 24.1 | 0.00 | 0.46 | 0.00 | 67 | 1012.5 |
| 20260507124503 | 18 | 42 | 9.7 | 22.5 | 0.00 | 0.46 | 0.00 | 67 | 1012.3 |
| 20260507123603 | 18 | 53 | 9.7 | 19.3 | 0.00 | 0.46 | 0.00 | 68 | 1012.4 |
| 20260507122705 | 18 | 72 | 9.7 | 22.5 | 0.00 | 0.46 | 0.00 | 68 | 1012.3 |
| 20260507121803 | 18 | 78 | 9.7 | 22.5 | 0.00 | 0.46 | 0.00 | 67 | 1012.4 |
| 20260507120904 | 18 | 71 | 12.9 | 27.4 | 0.00 | 0.46 | 0.00 | 67 | 1012.6 |
| 20260507120004 | 18 | 75 | 11.3 | 25.7 | 0.00 | 0.46 | 0.00 | 65 | 1012.5 |
| 20260507115403 | 19 | 66 | 12.9 | 27.4 | 0.00 | 0.46 | 0.00 | 63 | 1012.5 |
| 20260507114504 | 19 | 77 | 11.3 | 19.3 | 0.00 | 0.46 | 0.00 | 62 | 1012.8 |
| 20260507113604 | 19 | 79 | 11.3 | 27.4 | 0.00 | 0.46 | 0.00 | 61 | 1012.6 |
| 20260507112703 | 20 | 72 | 9.7 | 22.5 | 0.00 | 0.46 | 0.00 | 61 | 1012.7 |
| 20260507111803 | 20 | 55 | 9.7 | 22.5 | 0.00 | 0.46 | 0.00 | 61 | 1012.6 |
| 20260507110903 | 19 | 31 | 12.9 | 22.5 | 0.00 | 0.46 | 0.00 | 62 | 1012.8 |